Flag for Turkey Weather past 2 weeks in Samsun, Turkey

Now
45 °F

Light rain. Mostly cloudy.


Feels Like: 38 °F
Forecast: 37 / 51 °F
Wind: 14 mph from Northwest

Location: Samsun / Carsamba

Current Time: Apr 21, 2015 at 10:28:35 PM

Latest Report: Apr 21, 2015 at 9:50 PM


Visibility: 5 mi

Pressure: 30.01 "Hg

Humidity: 93%

Dew point: 43 °F

Location of SamsunLocation

Historic Weather in Samsun — Graph

°F

Samsun temperature yesterday

Maximum temperature yesterday: 52 °F (at 3:50 PM)
Minimum temperature yesterday: 43 °F (at 12:50 AM)
Average temperature yesterday: 46 °F

Past Weeks' High & Low Weather Summary

 TemperatureHumidityPressure
High82 °F (Apr 18, 2:50 PM)100% (Apr 8, 10:50 AM)30.24 "Hg (Apr 8, 10:50 AM)
Low34 °F (Apr 16, 5:50 AM)21% (Apr 18, 2:50 PM)29.56 "Hg (Apr 7, 8:50 AM)
Average51 °F74%30.02 "Hg
* Reported Apr 6 8:50 PM — Apr 21 8:50 PM, Samsun, Weather by CustomWeather, © 2015

Note: Actual official high and low records may vary slightly from our data, if they occured in-between our weather recording intervals... More about our weather records

Advertising

Samsun weather history for previous 24 hours

 ConditionsComfort  
Time TempWeatherWind HumidityBarometerVisibility
8:50 PM
Tue, Apr 21
45 °FLight rain. Mostly cloudy.12 mph93%30.01 "Hg4 mi
7:50 PM45 °FLight rain. Cloudy.16 mph93%29.98 "Hg4 mi
6:50 PM45 °FLight rain. Cloudy.17 mph93%29.95 "Hg4 mi
5:50 PM46 °FSprinkles. Broken clouds.23 mph87%29.92 "Hg4 mi
4:50 PM52 °FBroken clouds.12 mph67%29.89 "HgN/A
3:50 PM54 °FBroken clouds.8 mph54%29.83 "HgN/A
2:50 PM55 °FBroken clouds.8 mph51%29.83 "HgN/A
1:50 PM57 °FBroken clouds.8 mph39%29.83 "HgN/A
12:50 PM59 °FBroken clouds.12 mph36%29.83 "HgN/A
11:50 AM59 °FBroken clouds.9 mph39%29.83 "HgN/A
10:50 AM57 °FBroken clouds.3 mph44%29.83 "HgN/A
9:50 AM57 °FBroken clouds.2 mph48%29.83 "HgN/A
8:50 AM52 °FBroken clouds.No wind67%29.83 "HgN/A
7:50 AM48 °FPartly sunny.2 mph76%29.83 "HgN/A
6:50 AM43 °FPartly sunny.2 mph87%29.83 "HgN/A
5:50 AM43 °FPartly cloudy.3 mph87%29.83 "HgN/A
4:50 AM43 °FPartly cloudy.7 mph93%29.83 "HgN/A
3:50 AM43 °FPartly cloudy.6 mph93%29.83 "HgN/A
2:50 AM43 °FPartly cloudy.5 mph93%29.86 "HgN/A
1:50 AM45 °FPartly cloudy.No wind87%29.86 "HgN/A
12:50 AM45 °FPartly cloudy.No wind87%29.89 "HgN/A
11:50 PM
Mon, Apr 20
45 °FPartly cloudy.3 mph87%29.89 "HgN/A
10:50 PM45 °FPartly cloudy.3 mph87%29.89 "HgN/A
Weather by CustomWeather, © 2015

See weather overviewHow to use our weather pages